Historyczne dane pomiarowe

Dodano dane terminowe – wersja testowa.

Dane z okresu 1951-2019

Wersja bazy: 1.34 [2019-03-16, lista zmian], aktualizacja planowana na 2019-04-15

Dane meteo z obszaru Polski uzyskane na podstawie danych udostępnionych przez Instytut Meteorologii i Gospodarki Wodnej – Państwowy Instytut Badawczy.

 

Wybierz Datę:    

       

TemperaturaWilgotnośćZachmurzenieWiatrCiśnienieWidzialnośćZjawiska
 Data    tng td wb rh cc ccl cl cm ch dir g1 g2 mslp ppp      
1973-04-22 00:00:00 -4.4--- -5.0 -4.496wxwxwx0wx--- 824.5 0.8---wxw1
1973-04-22 01:00:00 -3.6------wxwxwx0wx--- 824.1----wx
1973-04-22 02:00:00 -4.0------wxwx0wx--- 824.2----wx
1973-04-22 03:00:00 -5.2--- -5.9 -5.295wxwx5wx--- 824.2----wx
1973-04-22 04:00:00 -5.6------wxwx6wx--- 824.2----wxw1
1973-04-22 05:00:00 -5.4------wxwx5wx--- 824.8----wxw1
1973-04-22 06:00:00 -5.0--- -5.6 -5.095wxwx0wx--- 825.2 0.4---wxw1
1973-04-22 07:00:00 -3.6------wxwxwx0wx--- 825.8----wxw1
1973-04-22 08:00:00 -2.6------wxwx0wx--- 826.2----wxw1
1973-04-22 09:00:00 -2.4--- -2.7 -2.498wxwx3wx--- 826.7----wxw1
1973-04-22 10:00:00 -2.1------wxwx1wx--- 827.3----wxw1
1973-04-22 11:00:00 -0.1------wxwx2wx--- 827.9----wxw1
1973-04-22 12:00:00 -0.4--- -0.4 -0.4100wxwx2wx--- 828.4 0.0---wxw1
1973-04-22 13:00:00 -2.7------wxwx4wx--- 828.6----wxw1
1973-04-22 14:00:00 -3.6------wxwx6wx--- 829.2----wxw1
1973-04-22 15:00:00 -4.1--- -4.6 -4.196wxwx6wx--- 829.5----wxw1
1973-04-22 16:00:00 -4.8------wxwxwx8wx--- 829.6----wxw1
1973-04-22 17:00:00 -4.8------wxwxwx2wx--- 830.1----wxw1
1973-04-22 18:00:00 -4.9--- -5.5 -4.995wxwxwx5wx--- 830.4 0.0---wxw1
1973-04-22 19:00:00 -5.1------wxwxwxwx5wx--- 830.6----wx
1973-04-22 20:00:00 -5.2------wxwxwx5wx--- 830.6----wx
1973-04-22 21:00:00 -5.4--- -6.1 -5.495wxwxwx4wx--- 830.7----wx
1973-04-22 22:00:00 -5.3------wxwxwx6wx--- 831.2----wx
1973-04-22 23:00:00 -5.7------wxwx12wx--- 831.3----wxw1

 

Źródłem pochodzenia danych jest Instytut Meteorologii i Gospodarki Wodnej – Państwowy Instytut Badawczy. Dane Instytutu Meteorologii i Gospodarki Wodnej – Państwowego Instytutu Badawczego zostały przetworzone.

Dane źródłowe można odnaleźć na stronie https://dane.imgw.pl